Precipitable_Water
0.38 0.38 0.38 0.41 0.43 0.46 0.52 0.57 0.62 0.67 0.81 0.86 0.84 0.85 0.81 0.88 0.93 0.93 0.88 0.91 0.95 0.97 0.96 0.94 0.96 1.02 0.97 0.93 0.96 0.96 0.90 0.87 0.91 0.84 0.81 0.84 0.85 0.81 0.78 0.78 0.76 0.73 0.70
0.35 0.34 0.37 0.38 0.36 0.37 0.42 0.48 0.57 0.65 0.71 0.82 0.89 0.92 0.90 0.91 0.93 0.92 0.86 0.90 0.93 0.93 0.93 0.91 0.90 0.98 1.01 1.00 0.97 0.96 0.92 0.91 0.95 0.83 0.82 0.68 0.72 0.78 0.82 0.84 0.82 0.78 0.77
0.38 0.39 0.41 0.44 0.43 0.40 0.37 0.37 0.46 0.58 0.67 0.74 0.80 0.86 0.91 0.93 0.88 0.84 0.81 0.82 0.90 0.91 0.90 0.89 0.91 0.95 1.01 0.99 1.00 1.00 0.95 0.85 0.93 0.94 0.83 0.67 0.59 0.66 0.77 0.79 0.77 0.73 0.71
0.44 0.44 0.45 0.46 0.48 0.51 0.54 0.53 0.52 0.56 0.64 0.72 0.72 0.73 0.73 0.73 0.75 0.79 0.81 0.81 0.88 0.87 0.89 0.89 0.92 0.95 1.01 1.00 1.01 1.04 0.99 0.97 0.86 0.96 0.94 0.91 0.84 0.70 0.66 0.80 0.81 0.78 0.77
0.47 0.46 0.48 0.50 0.51 0.53 0.56 0.59 0.59 0.60 0.64 0.69 0.72 0.75 0.75 0.81 0.84 0.81 0.78 0.76 0.83 0.90 0.90 0.95 0.99 0.98 1.00 1.03 1.02 1.01 1.01 1.02 0.97 0.91 0.94 0.93 0.92 0.93 0.83 0.71 0.75 0.85 0.86
0.50 0.51 0.54 0.56 0.56 0.58 0.57 0.57 0.58 0.62 0.68 0.70 0.68 0.68 0.73 0.78 0.81 0.83 0.83 0.87 0.92 0.94 0.98 1.01 1.01 1.02 1.04 1.04 1.04 1.03 0.98 0.95 0.98 0.99 0.97 0.90 0.83 0.81 0.83 0.80 0.80 0.81 0.84
0.53 0.54 0.57 0.60 0.62 0.61 0.62 0.59 0.59 0.57 0.60 0.63 0.70 0.74 0.74 0.75 0.74 0.76 0.79 0.80 0.83 0.87 0.90 0.96 0.95 0.96 1.01 1.02 1.01 0.97 0.95 0.96 0.97 0.96 0.96 1.00 1.00 1.01 0.97 0.90 0.84 0.84 0.91
0.59 0.60 0.61 0.63 0.64 0.67 0.68 0.67 0.66 0.65 0.66 0.66 0.66 0.68 0.75 0.80 0.83 0.84 0.86 0.87 0.88 0.91 0.98 0.98 0.95 0.94 0.98 0.99 1.01 1.00 0.97 0.98 0.98 0.99 1.01 1.01 1.01 1.04 1.02 0.95 0.89 0.81 0.87
0.56 0.56 0.58 0.59 0.61 0.64 0.69 0.71 0.70 0.70 0.70 0.70 0.69 0.68 0.68 0.65 0.66 0.71 0.76 0.79 0.83 0.86 0.88 0.93 0.97 0.97 0.97 0.98 1.01 1.00 0.98 1.02 1.03 1.01 1.00 0.98 0.99 1.04 1.06 1.04 0.99 0.90 0.77
0.54 0.55 0.55 0.56 0.58 0.61 0.66 0.69 0.71 0.72 0.73 0.72 0.71 0.70 0.70 0.70 0.70 0.69 0.67 0.68 0.71 0.76 0.80 0.85 0.90 0.94 0.98 1.02 1.03 1.04 1.04 1.03 1.03 1.04 1.00 0.98 0.98 1.00 1.02 1.00 1.02 1.02 0.93
0.56 0.56 0.54 0.57 0.59 0.61 0.61 0.61 0.63 0.64 0.66 0.68 0.70 0.71 0.72 0.73 0.74 0.74 0.74 0.73 0.74 0.74 0.74 0.77 0.81 0.85 0.90 0.96 1.01 1.04 1.04 1.03 1.03 1.06 1.04 1.00 1.01 0.99 1.03 1.02 1.00 0.98 0.98
0.59 0.56 0.56 0.60 0.65 0.66 0.68 0.68 0.70 0.70 0.71 0.71 0.70 0.69 0.70 0.72 0.73 0.74 0.77 0.80 0.80 0.80 0.79 0.79 0.78 0.78 0.81 0.87 0.90 0.92 0.97 0.98 0.98 1.00 1.04 0.98 1.00 0.99 1.00 1.02 0.96 0.99 1.00
0.54 0.57 0.62 0.66 0.69 0.71 0.71 0.71 0.71 0.70 0.72 0.73 0.72 0.71 0.72 0.74 0.72 0.71 0.73 0.77 0.77 0.78 0.79 0.81 0.80 0.80 0.82 0.84 0.88 0.90 0.94 1.00 1.02 1.05 1.08 1.09 1.08 0.97 0.98 1.02 0.98 0.97 0.99
0.61 0.64 0.66 0.67 0.68 0.70 0.74 0.74 0.71 0.71 0.71 0.70 0.68 0.68 0.69 0.70 0.71 0.71 0.72 0.72 0.73 0.74 0.74 0.76 0.77 0.78 0.80 0.82 0.85 0.88 0.91 0.93 0.95 1.02 1.03 1.08 1.11 1.06 1.02 1.01 1.02 1.00 0.98
0.66 0.67 0.66 0.67 0.67 0.67 0.73 0.72 0.72 0.72 0.73 0.71 0.69 0.69 0.70 0.69 0.66 0.65 0.64 0.65 0.65 0.66 0.69 0.73 0.74 0.75 0.76 0.78 0.80 0.85 0.88 0.89 0.89 0.95 1.02 1.06 1.04 1.10 1.08 1.05 1.06 1.01 1.00
0.63 0.64 0.65 0.66 0.66 0.69 0.72 0.70 0.71 0.70 0.69 0.65 0.64 0.65 0.63 0.61 0.59 0.58 0.57 0.56 0.55 0.57 0.59 0.60 0.64 0.71 0.75 0.78 0.81 0.85 0.83 0.84 0.85 0.84 0.92 0.99 1.00 1.08 1.10 1.11 1.09 1.09 1.01
0.61 0.60 0.60 0.61 0.67 0.69 0.69 0.67 0.67 0.65 0.61 0.60 0.62 0.61 0.59 0.57 0.56 0.57 0.56 0.55 0.54 0.54 0.53 0.54 0.55 0.57 0.62 0.69 0.76 0.80 0.86 0.83 0.82 0.81 0.82 0.91 1.01 1.05 1.08 1.06 1.09 1.12 1.14
0.58 0.57 0.63 0.65 0.65 0.67 0.67 0.64 0.64 0.61 0.59 0.58 0.58 0.57 0.56 0.55 0.55 0.55 0.53 0.52 0.53 0.53 0.53 0.54 0.55 0.55 0.58 0.63 0.69 0.76 0.80 0.84 0.84 0.85 0.84 0.84 0.91 0.97 1.02 1.02 1.04 1.05 1.11
0.61 0.63 0.64 0.64 0.64 0.63 0.61 0.59 0.57 0.55 0.54 0.52 0.51 0.50 0.49 0.48 0.48 0.47 0.46 0.46 0.48 0.49 0.50 0.51 0.53 0.55 0.58 0.63 0.67 0.69 0.72 0.74 0.79 0.86 0.87 0.86 0.91 0.94 1.02 1.06 1.03 1.04 1.05
0.63 0.62 0.61 0.60 0.59 0.58 0.56 0.53 0.51 0.49 0.48 0.47 0.46 0.46 0.45 0.43 0.41 0.41 0.42 0.42 0.43 0.44 0.47 0.48 0.51 0.54 0.54 0.57 0.60 0.63 0.66 0.64 0.68 0.74 0.87 0.90 0.91 0.96 1.00 1.02 1.03 0.97 0.96
0.63 0.63 0.61 0.58 0.56 0.54 0.51 0.46 0.43 0.40 0.40 0.39 0.37 0.35 0.34 0.34 0.34 0.34 0.36 0.36 0.36 0.38 0.43 0.44 0.44 0.45 0.44 0.46 0.51 0.57 0.62 0.64 0.64 0.67 0.76 0.89 0.94 0.94 0.94 1.00 1.03 0.97 0.97
0.62 0.60 0.55 0.51 0.48 0.45 0.40 0.34 0.29 0.26 0.23 0.21 0.22 0.22 0.22 0.23 0.23 0.24 0.27 0.29 0.30 0.31 0.35 0.37 0.37 0.37 0.39 0.42 0.45 0.47 0.58 0.63 0.63 0.64 0.72 0.81 0.88 0.94 0.91 0.99 1.03 1.01 1.00
0.56 0.51 0.46 0.40 0.35 0.30 0.23 0.17 0.15 0.16 0.15 0.15 0.15 0.16 0.16 0.16 0.17 0.16 0.17 0.19 0.22 0.25 0.28 0.30 0.30 0.30 0.33 0.35 0.42 0.44 0.45 0.54 0.60 0.66 0.72 0.78 0.86 0.91 0.91 0.95 0.99 0.97 0.94
0.46 0.40 0.34 0.27 0.21 0.17 0.16 0.15 0.15 0.15 0.15 0.14 0.14 0.14 0.14 0.15 0.15 0.15 0.16 0.17 0.16 0.16 0.20 0.24 0.29 0.31 0.31 0.33 0.35 0.40 0.42 0.46 0.57 0.64 0.68 0.76 0.81 0.88 0.89 0.88 0.90 0.90 0.89
0.33 0.30 0.24 0.19 0.16 0.16 0.15 0.15 0.15 0.15 0.14 0.14 0.14 0.14 0.14 0.14 0.13 0.13 0.13 0.15 0.16 0.16 0.16 0.18 0.24 0.27 0.31 0.34 0.35 0.38 0.39 0.44 0.56 0.63 0.67 0.71 0.74 0.78 0.79 0.79 0.83 0.84 0.84
0.24 0.21 0.18 0.16 0.15 0.15 0.15 0.15 0.15 0.16 0.15 0.14 0.14 0.14 0.14 0.13 0.13 0.13 0.13 0.15 0.16 0.17 0.18 0.19 0.20 0.26 0.32 0.38 0.35 0.35 0.37 0.44 0.60 0.62 0.65 0.67 0.71 0.72 0.76 0.73 0.75 0.79 0.79
Wind_Speed
17 17 18 20 22 23 24 26 26 27 27 27 28 28 29 29 29 29 30 30 31 31 31 31 31 31 31 32 32 32 32 33 33 34 35 35 36 37 38 39 39 40 40
10 11 13 14 16 19 21 23 25 25 26 27 27 28 29 30 30 31 31 32 33 33 34 34 34 34 34 34 34 34 34 35 34 35 35 36 36 38 39 39 39 40 40
7 9 10 11 12 14 17 20 22 24 25 25 26 27 28 29 29 31 32 33 34 35 35 36 36 36 37 37 37 36 36 36 36 36 36 34 36 36 35 37 38 37 37
7 9 10 11 12 13 15 16 19 20 23 24 25 26 27 28 30 32 33 34 35 36 37 38 38 39 39 39 38 37 38 37 37 37 39 40 40 38 38 36 37 37 37
8 10 11 13 13 14 14 15 16 18 21 24 26 27 29 30 31 32 34 35 36 37 38 39 40 40 40 40 39 39 39 39 39 39 39 40 41 42 42 42 41 41 40
9 11 12 13 14 15 15 16 16 18 20 23 26 29 31 33 33 34 35 36 36 37 39 40 41 41 41 41 41 41 41 41 41 41 40 40 39 41 42 43 43 43 41
11 13 15 16 16 17 18 18 18 19 21 23 26 28 31 33 35 36 37 37 38 39 40 40 41 41 42 42 42 43 43 43 43 42 42 42 44 44 43 43 42 42 41
15 16 17 18 19 20 20 20 21 22 23 24 26 28 30 31 32 34 35 37 38 38 39 39 40 41 42 43 43 44 44 44 44 44 45 45 45 45 45 44 42 42 41
17 18 20 21 22 22 22 24 24 25 26 27 27 28 29 31 33 35 36 37 38 39 39 40 40 41 42 43 44 45 45 46 46 46 46 46 46 46 45 44 42 41 40
21 22 23 24 25 26 27 28 29 29 30 31 31 32 33 33 34 35 36 37 37 38 39 40 41 42 43 44 45 46 47 47 48 49 48 47 46 46 45 44 42 41 41
24 25 26 26 28 29 30 31 31 32 33 34 34 35 36 36 36 36 36 37 38 39 41 42 44 45 46 47 48 49 50 51 51 51 50 49 47 46 44 43 42 41 41
26 28 28 28 28 29 31 31 32 33 34 35 36 37 37 38 38 39 39 40 41 42 43 44 45 46 47 48 49 51 52 53 53 53 52 51 49 48 47 44 44 43 42
30 29 29 29 30 32 32 32 33 35 36 36 37 38 38 39 40 41 43 44 45 46 47 47 47 48 48 49 50 51 53 54 55 55 54 53 51 50 47 45 44 43 42
29 29 30 31 32 33 33 35 36 37 38 39 39 40 40 41 42 43 44 45 46 48 49 50 50 51 51 51 51 51 52 54 54 54 53 53 52 51 49 47 46 44 43
29 30 31 33 34 36 37 38 39 39 39 40 41 41 42 43 44 45 45 46 46 47 48 49 50 50 51 50 50 51 52 53 53 53 52 51 50 50 49 47 47 45 42
30 31 34 35 37 38 39 39 40 41 42 42 42 43 44 44 45 46 47 47 47 48 48 49 49 50 50 50 50 51 52 53 53 52 52 51 52 51 50 49 49 48 44
33 35 37 38 38 40 41 41 43 44 44 44 45 46 47 47 48 48 48 49 49 49 49 49 49 49 50 50 50 50 51 51 51 50 51 52 50 49 47 47 48 48 48
36 38 39 40 42 43 43 45 46 46 47 47 47 48 49 49 49 49 49 49 49 49 49 49 49 50 49 48 48 50 49 50 49 48 48 48 48 47 46 45 45 45 46
38 39 41 42 43 44 46 47 47 48 48 49 49 49 49 49 49 49 49 49 49 49 49 49 49 49 48 47 47 47 48 48 49 48 46 45 44 44 43 42 40 42 40
40 41 43 44 45 46 47 48 48 48 48 49 49 49 49 49 49 49 50 49 50 50 49 49 48 47 47 47 47 47 47 47 47 46 45 42 41 42 42 41 39 37 36
43 44 45 45 46 47 47 47 48 48 48 49 49 48 48 49 49 50 50 51 51 51 49 49 47 47 46 46 46 45 44 44 44 43 41 39 39 39 40 39 38 35 33
45 45 45 45 45 45 46 46 47 47 48 48 48 49 49 50 51 52 52 52 51 51 49 48 47 46 45 45 44 44 43 43 42 40 39 38 38 37 37 36 36 31 29
44 44 43 44 44 44 44 45 46 47 48 49 50 51 52 52 52 53 53 53 52 50 48 48 47 46 44 43 43 42 42 42 40 39 38 39 37 36 34 33 30 28 28
42 42 42 43 42 42 43 45 47 48 49 51 52 53 53 54 53 53 53 52 51 49 47 46 45 44 43 41 39 39 39 39 38 37 37 36 35 34 29 27 27 26 27
40 40 40 40 41 42 44 45 47 49 50 51 52 53 53 54 54 53 52 49 48 46 46 45 44 42 40 38 39 38 37 36 37 37 33 31 30 27 26 25 26 25 25
38 38 39 40 42 44 45 47 48 50 52 53 53 53 54 53 51 49 47 46 46 46 45 44 43 41 39 38 37 36 36 35 34 30 28 26 26 25 25 25 24 23 22
Wind_Direction
277 278 278 274 270 266 264 262 260 260 259 260 262 265 266 268 269 269 269 268 270 272 273 275 277 279 281 283 285 286 287 287 287 289 289 288 288 286 285 284 283 282 282
288 291 291 288 282 274 269 265 263 261 261 262 264 266 268 269 270 270 270 270 272 272 273 274 276 278 280 282 283 285 287 287 286 287 289 291 291 287 286 285 284 283 282
309 311 310 307 297 290 281 273 268 263 262 264 267 268 270 270 272 272 272 271 273 273 274 274 275 277 279 281 283 284 284 287 286 284 286 292 291 293 290 287 286 285 283
315 318 317 317 312 304 296 287 278 271 265 266 268 270 272 271 272 274 276 274 274 274 275 275 276 277 279 280 281 283 284 285 287 287 284 283 288 292 293 290 287 284 283
314 319 317 316 314 311 306 298 289 281 273 272 272 274 275 275 276 277 277 277 276 276 276 276 276 277 277 279 280 282 283 284 284 285 287 286 286 286 286 288 286 285 283
310 314 316 315 316 314 311 306 300 293 286 281 280 278 278 278 279 279 280 279 278 278 277 277 277 278 277 278 279 281 282 282 283 284 284 286 289 287 286 286 286 284 283
305 309 313 313 312 311 310 307 305 302 297 292 289 286 283 282 281 280 280 280 279 279 279 278 277 277 277 277 278 279 280 281 281 282 284 285 286 287 287 286 285 284 284
300 303 306 306 307 306 307 306 305 303 301 299 296 293 289 287 286 284 283 282 281 281 280 279 279 279 278 278 278 279 280 281 281 282 283 284 286 285 284 284 284 284 282
297 301 303 304 302 303 303 303 303 302 301 300 298 297 295 293 290 288 286 284 283 282 282 281 280 280 279 279 279 279 280 281 281 282 283 283 285 284 284 282 281 282 282
293 297 299 300 299 299 300 300 299 299 298 297 296 296 295 294 293 291 289 288 286 284 283 282 282 282 281 280 280 280 280 281 282 282 282 283 284 283 282 281 280 278 279
292 297 298 298 299 299 300 299 299 298 297 297 296 294 294 293 293 292 291 290 288 287 286 285 284 283 282 281 280 279 280 280 281 280 281 281 282 281 281 279 279 278 277
292 297 297 298 298 300 301 301 300 300 299 298 297 295 294 293 292 291 291 290 290 289 288 287 286 285 284 282 281 280 280 280 280 280 280 279 279 278 277 278 276 277 275
293 294 296 297 297 299 300 301 301 301 300 299 298 297 296 295 294 293 292 291 289 288 287 287 287 287 286 285 283 282 281 280 279 279 278 278 277 276 275 274 275 275 275
291 293 295 296 298 299 300 301 301 301 300 299 298 297 296 295 295 294 294 293 292 290 288 287 287 286 286 286 285 284 283 283 281 280 278 277 275 274 273 271 272 273 274
290 293 295 297 298 299 299 300 299 300 300 299 298 297 297 296 296 296 296 295 294 293 292 290 288 288 287 286 286 285 285 285 284 281 278 276 274 274 272 270 270 271 271
293 295 296 297 298 299 299 299 299 299 299 299 298 298 298 297 297 297 297 296 296 295 294 293 292 290 288 288 287 286 286 285 284 282 279 276 274 273 272 269 268 267 269
294 296 297 298 298 298 299 299 299 299 299 299 298 298 298 297 297 297 296 296 296 296 295 294 293 292 291 290 289 288 285 285 284 284 281 277 275 272 274 271 267 265 263
295 297 298 298 298 297 298 299 299 299 299 299 299 299 298 298 298 297 297 297 297 296 296 295 294 293 293 292 291 290 288 285 284 284 284 280 276 272 271 272 267 266 263
296 297 297 298 298 298 299 300 300 300 299 299 299 299 299 298 298 298 298 298 298 297 296 296 295 294 294 295 294 293 290 288 284 283 285 283 277 272 270 269 270 267 262
297 298 298 298 299 300 300 300 301 301 300 300 300 300 300 299 299 298 298 298 298 297 297 296 295 295 295 295 295 296 292 290 287 284 279 282 279 272 269 269 268 265 259
299 299 299 299 300 301 301 301 301 301 301 301 300 301 301 300 300 299 299 298 297 296 295 295 295 296 296 296 296 296 294 292 290 287 280 278 282 275 269 265 265 261 257
298 299 299 300 301 301 302 302 302 302 302 302 301 301 301 300 299 299 298 298 298 296 295 294 294 295 296 297 297 297 295 294 291 287 280 279 276 280 271 266 263 256 252
298 299 299 300 301 302 302 302 303 303 303 303 302 302 301 301 300 299 298 297 296 295 295 294 294 293 295 297 297 297 297 294 292 287 282 277 276 277 271 265 256 249 252
297 298 299 300 301 302 303 304 304 305 305 304 304 303 302 301 300 299 298 296 295 294 293 293 293 293 293 295 297 298 299 297 293 290 283 276 274 271 270 259 249 252 251
298 299 300 301 302 304 305 306 306 306 306 305 305 304 303 302 301 299 297 295 294 293 293 292 291 292 291 292 296 298 299 299 296 292 283 276 269 263 264 255 251 253 249
299 300 301 303 304 305 306 307 307 308 307 307 306 305 304 304 302 301 299 296 295 293 291 289 289 288 289 291 295 296 298 301 300 294 284 276 267 258 260 255 250 248 244